Flight Track Log - Related Links

Times and Time Zones

All times are in EDT time to prevent confusion due to time zone crossing. See the RPA3457 flight status page for this flight to view local times or setup timezone preferences in your user account.

Time Position Orientation Groundspeed Altitude Reporting Facility
EDT Latitude Longitude Course Direction KTS MPH feet Rate Location/Type
Mon 08:06:14 AM 44.3528 -73.1631 195° South 220 253 5,300  Level Boston Center
Mon 08:07:15 AM 44.2858 -73.1911 197° South 250 288 8,600 3,076 Climbing Boston Center
Mon 08:08:13 AM 44.2006 -73.2017 185° South 289 333 11,400 3,102 Climbing Boston Center
Mon 08:09:13 AM 44.1025 -73.2150 186° South 322 371 14,700 2,876 Climbing Boston Center
Mon 08:10:00 AM 43.8765 -73.3651 195° South  Level FlightAware Approximate
Mon 08:10:14 AM 44.0128 -73.2281 186° South 327 376 17,200  Level Boston Center
Mon 08:11:00 AM 43.7755 -73.4031 195° South  Level FlightAware Approximate
Mon 08:11:15 AM 43.9128 -73.2414 185° South 350 403 19,300  Level Boston Center
Mon 08:12:13 AM 43.8147 -73.2572 187° South 362 417 21,700 2,339 Climbing Boston Center
Mon 08:13:13 AM 43.7125 -73.2703 185° South 372 428 23,900 2,000 Climbing Boston Center
Mon 08:14:13 AM 43.6164 -73.2831 185° South 378 435 25,700 1,250 Climbing Boston Center
Mon 08:15:13 AM 43.5100 -73.2961 185° South 383 441 26,400 1,140 Climbing Boston Center
Mon 08:16:14 AM 43.3975 -73.3117 186° South 388 447 28,000 787 Climbing Boston Center
Mon 08:17:15 AM 43.2931 -73.3272 186° South 383 441 28,000  Level Boston Center
Mon 08:18:14 AM 43.1908 -73.3400 185° South 383 441 28,000  Level Boston Center
Mon 08:19:14 AM 43.0886 -73.3528 185° South 383 441 28,000  Level Boston Center
Mon 08:20:15 AM 42.9803 -73.3653 185° South 389 448 28,000  Level Boston Center
Mon 08:21:15 AM 42.8758 -73.3808 186° South 389 448 28,000  Level Boston Center
Mon 08:22:13 AM 42.7756 -73.3961 186° South 377 434 28,000  Level Boston Center
Mon 08:23:13 AM 42.6714 -73.4114 186° South 377 434 28,000  Level Boston Center
Mon 08:24:14 AM 42.5650 -73.4239 185° South 382 440 28,000  Level Boston Center
Mon 08:25:14 AM 42.4586 -73.4392 186° South 388 447 28,000  Level Boston Center
Mon 08:26:14 AM 42.3625 -73.4517 185° South 388 447 28,000  Level Boston Center
Mon 08:27:15 AM 42.2625 -73.4556 182° South 382 440 28,000  Level Boston Center
Mon 08:28:15 AM 42.1581 -73.4708 186° South 382 440 28,000  Level Boston Center
Mon 08:29:13 AM 42.0747 -73.4806 185° South 382 440 28,000  Level Boston Center
Mon 08:30:13 AM 41.9636 -73.5542 206° Southwest 369 425 28,000  Level Boston Center
Mon 08:31:14 AM 41.8753 -73.6194 209° Southwest 369 425 28,000  Level Boston Center
Mon 08:32:15 AM 41.7892 -73.6847 209° Southwest 369 425 28,000  Level Boston Center
Mon 08:33:13 AM 41.7008 -73.7469 208° Southwest 369 425 28,000  Level Boston Center
Mon 08:35:10 AM 41.5292 -73.8692 208° Southwest 358 412 28,000  Level New York Center
Mon 08:36:10 AM 41.4419 -73.9344 209° Southwest 358 412 28,000  Level New York Center
Mon 08:37:11 AM 41.3528 -73.9992 209° Southwest 358 412 28,000  Level New York Center
Mon 08:38:10 AM 41.2658 -74.0614 208° Southwest 358 412 28,000  Level New York Center
Mon 08:39:11 AM 41.1764 -74.1286 210° Southwest 358 412 28,000  Level New York Center
Mon 08:40:11 AM 41.0892 -74.1931 209° Southwest 358 412 28,000  Level New York Center
Mon 08:41:13 AM 40.9872 -74.2594 206° Southwest 363 418 28,000  Level New York Center
Mon 08:42:10 AM 40.8956 -74.3233 208° Southwest 363 418 28,000  Level New York Center
Mon 08:43:10 AM 40.8083 -74.3872 209° Southwest 368 423 28,000  Level New York Center
Mon 08:44:11 AM 40.7389 -74.4794 225° Southwest 360 414 28,000  Level New York Center
Mon 08:45:12 AM 40.6794 -74.5803 232° Southwest 354 407 28,000 -756 Level New York Center
Mon 08:46:10 AM 40.6219 -74.6808 233° Southwest 354 407 26,500 -2,067 Descending New York Center
Mon 08:47:11 AM 40.5603 -74.7756 229° Southwest 354 407 23,900 -2,164 Descending New York Center
Mon 08:48:12 AM 40.4947 -74.8647 226° Southwest 348 400 22,100 -934 Descending New York Center
Mon 08:49:13 AM 40.4333 -74.9536 228° Southwest 343 395 22,000 -51 Descending New York Center
Mon 08:50:10 AM 40.3717 -75.0425 228° Southwest 338 389 22,000  Level New York Center
Mon 08:51:11 AM 40.3100 -75.1314 228° Southwest 333 383 22,000  Level New York Center
Mon 08:52:12 AM 40.2464 -75.2197 227° Southwest 333 383 22,000  Level New York Center
Mon 08:53:10 AM 40.1892 -75.2978 226° Southwest 333 383 22,000  Level New York Center
Mon 08:54:12 AM 40.1275 -75.3858 228° Southwest 333 383 22,000  Level New York Center
Mon 08:55:10 AM 40.0633 -75.4767 227° Southwest 333 383 22,000  Level New York Center
Mon 08:56:10 AM 39.9994 -75.5644 226° Southwest 333 383 22,000  Level New York Center
Mon 08:57:11 AM 39.9353 -75.6522 226° Southwest 333 383 22,000 -295 Level New York Center
Mon 08:58:12 AM 39.8836 -75.7458 234° Southwest 333 383 21,400 -1,240 Descending New York Center
Mon 08:59:12 AM 39.8336 -75.8425 236° Southwest 333 383 19,500 -1,966 Descending New York Center
Mon 09:00:11 AM 39.7814 -75.9358 234° Southwest 322 371 17,500 -2,017 Descending New York Center
Mon 09:01:11 AM 39.7314 -76.0294 235° Southwest 317 365 15,500 -2,067 Descending New York Center
Mon 09:02:10 AM 39.6792 -76.1281 235° Southwest 311 358 13,400 -1,522 Descending New York Center
Mon 09:03:29 AM 39.6167 -76.2500 236° Southwest 295 339 12,000 -604 Descending Potomac TRACON
Mon 09:04:29 AM 39.5667 -76.3167 226° Southwest 297 342 12,000  Level Potomac TRACON
Mon 09:05:23 AM 39.5000 -76.3833 218° Southwest 293 337 12,000  Level Potomac TRACON
Mon 09:06:23 AM 39.4333 -76.4333 210° Southwest 285 328 12,000 -400 Level Potomac TRACON
Mon 09:07:23 AM 39.3667 -76.4833 210° Southwest 271 312 11,200 -1,053 Descending Potomac TRACON
Mon 09:08:17 AM 39.3167 -76.5333 218° Southwest 269 310 10,000 -661 Descending Potomac TRACON
Mon 09:09:12 AM 39.2500 -76.5833 210° Southwest 269 310 10,000  Level Potomac TRACON
Mon 09:10:12 AM 39.2000 -76.6333 218° Southwest 278 320 10,000  Level Potomac TRACON
Mon 09:11:12 AM 39.1333 -76.7000 218° Southwest 274 315 10,000  Level Potomac TRACON
Mon 09:12:07 AM 39.0833 -76.7667 226° Southwest 237 273 10,000 -52 Level Potomac TRACON
Mon 09:13:07 AM 39.0333 -76.8167 218° Southwest 226 260 9,900 -600 Descending Potomac TRACON
Mon 09:14:07 AM 39.0000 -76.8667 229° Southwest 202 232 8,800 -1,190 Descending Potomac TRACON
Mon 09:15:08 AM 38.9667 -76.9333 237° Southwest 218 251 7,500 -1,091 Descending Potomac TRACON
Mon 09:16:08 AM 38.9667 -77.0000 270° West 210 242 6,600 -947 Descending Potomac TRACON
Mon 09:17:02 AM 39.0000 -77.0500 311° West 212 244 5,700 -835 Descending Potomac TRACON
Mon 09:18:03 AM 39.0500 -77.1167 314° West 197 227 5,000 -645 Descending Potomac TRACON
Mon 09:19:03 AM 39.0833 -77.1500 322° Northwest 191 220 4,400 -684 Descending Potomac TRACON
Mon 09:19:57 AM 39.0833 -77.2000 270° West 173 199 3,700 -730 Descending Potomac TRACON
Mon 09:20:58 AM 39.0333 -77.2000 180° South 158 182 3,000 -347 Descending Potomac TRACON
Mon 09:21:58 AM 38.9833 -77.1833 165° South 159 183 3,000 -150 Level Potomac TRACON
Mon 09:22:58 AM 38.9667 -77.1333 113° Southeast 169 194 2,700 -300 Descending Potomac TRACON

Login

Don't have an account? Register now (free) for customized features, flight alerts, and more!